sat.trackr.live / text

‹ back to catalog

KUIPER-00159

NORAD 67764 · 2026-030A

PAYLOAD ACTIVE UNKNOWN

§ Identity

Operator
Country
US
Launch date
2026-02-12
Launch site
FRGUI
Launch vehicle
Mass (kg)
RCS (m²)

External: N2YO · Heavens-Above · Gunter

§ Orbital elements

Epoch: 2026-05-25T04:00:16.047360Z

Period
93.64 min
Inclination
51.8841°
Eccentricity
0.0006237
Mean motion
15.37851718 rev/d
Perigee alt
448.2 km
Apogee alt
456.7 km
Semi-major
6,830.6 km
B*
4.0036e-4
RAAN
209.7327°
Arg perigee
328.1839°
Mean anomaly
31.8771°
Rev number
1,685

§ Raw data

KUIPER-001591 67764U 26030A   26145.16685240  .00014771  00000+0  40036-3 0  99962 67764  51.8841 209.7327 0006237 328.1839  31.8771 15.37851718 16854

JSON: /api/v1/satellites/67764 · /tle

For live sub-satellite position, see the globe view (requires WebGL).

§ Visibility from observer

Set your observer location to see the next 7 days of passes ≥ 10°. The values pass through the URL so the page stays shareable.

No JS? Fill the form by hand. The geolocation button needs JavaScript.